Location: Il Ritiro
(43.4167°N, 13.1333°E)
Time: 07:38:42
(UTC+00:00)

NOSS 0 Rocket - Pass Details

Date: 05 July 2020
Orbit: 934 x 955 km, 70.0° (Epoch: 05 August)

Event Time Altitude Azimuth Distance (km) Brightness Sun altitude
Exits shadow 22:07:32 16° 227° (SW) 2,238 5.6 -22.3°
Maximum altitude 22:12:23 55° 301° (WNW) 1,115 4.5 -22.5°
Drops below altitude 10° 22:18:27 10° 19° (NNE) 2,664 7.1 -22.8°
Sets 22:21:03 0° 24° (NNE) 3,615 7.8 -22.9°
